[[{"header":{"parameterUnit":"m.s-1","parameterCategory":1,"la1":30.2991,"la2":30.254,"lo1":-89.0895,"lo2":-89.0444,"dy":0.0017,"dx":0.0017,"nx":28,"ny":28,"refTime":"2025-09-17T03:00:00:Z","depth":0,"parameterNumber":2,"parameterNumberName":"U-component_of_WINDS"},"data":[0,0,0,0,0,0,0,0,0,0,0,0,0,0,0,0,0,0,0,0,0,0,0,0,0,0,0,0,0,0,0,0,0,0,0,0,0,0,0,0,0,0,0,0,0,0,0,0,0,0,0,0,0,0,0,0,0,0,0.5734,0.5735,0,0.5863,0.5865,0.5866,0.5932,0.5932,0.5932,0.5932,0.6064,0.6068,0.6071,0,0,0,0,0,0,0,0,0,0,0,0,0,0.5541,0.5544,0.5734,0.5735,0.5737,0.5863,0.5865,0.5867,0.5932,0.5932,0.5932,0.5932,0.6063,0.6067,0.6072,0,0,0,0,0,0,0,0,0,0,0,0,0,0.5643,0.5545,0.5733,0.5785,0.579,0.5863,0.5865,0.5867,0.5932,0.5932,0.5932,0.5932,0.6062,0.6067,0.6072,0.6103,0,0,0.6088,0.609,0,0,0,0,0,0,0,0,0.5637,0.565,0.5775,0.5781,0.5788,0.5881,0.5846,0.5946,0.5932,0.5878,0.5932,0.5932,0.6003,0.6013,0.6038,0.6109,0.6115,0.6089,0.6092,0.6094,0.6096,0,0,0,0,0,0,0,0.563,0.5645,0.5785,0.5777,0.5785,0.5801,0.5815,0.5865,0.5939,0.5883,0.5888,0.5902,0.6007,0.6032,0.6041,0.6117,0.6088,0.6093,0.6096,0.6098,0.6219,0.6219,0,0,0,0,0,0,0.5615,0.5639,0.5781,0.5789,0.5711,0.5804,0.582,0.5851,0.5938,0.5952,0.5902,0.5905,0.6024,0.6035,0.6046,0.6088,0.6094,0.6099,0.6102,0.6219,0.6219,0.6219,0,0,0,0,0,0,0.5611,0.5627,0.5776,0.5715,0.5735,0.5807,0.5842,0.5854,0.588,0.5953,0.5966,0.5915,0.6024,0.6039,0.6088,0.6093,0.6101,0.6106,0.6219,0.6219,0.6219,0.6171,0,0,0,0,0,0,0.5605,0.5625,0.5638,0.5715,0.5738,0.5816,0.5842,0.5856,0.5888,0.5893,0.5969,0.5981,0.6025,0.608,0.6093,0.61,0.611,0.6219,0.6219,0.6219,0.6172,0.6169,0.6167,0,0,0,0,0,0.5598,0.562,0.5638,0.5655,0.5756,0.5816,0.5829,0.588,0.5889,0.5902,0.5949,0.5979,0.609,0.6085,0.61,0.6109,0.6219,0.6219,0.6219,0.6174,0.617,0.6167,0,0,0,0,0,0,0.5542,0.5631,0.5653,0.57,0.575,0.5827,0.5846,0.5874,0.5923,0.5925,0.5986,0.6002,0.6046,0.6082,0.6074,0.6143,0.6157,0.6161,0.6117,0.6114,0.6112,0.6102,0.6114,0,0,0,0,0,0.5535,0.5576,0.5652,0.5686,0.571,0.5773,0.5801,0.5835,0.589,0.5911,0.5962,0.6013,0.6059,0.6089,0.6136,0.6178,0.6194,0.6191,0.6188,0.6185,0.6188,0.6211,0.6211,0.622,0.622,0.622,0,0,0.5522,0.5575,0.5598,0.5676,0.5719,0.576,0.5791,0.5833,0.5864,0.5918,0.5967,0.6006,0.6067,0.6112,0.6135,0.6144,0.6189,0.6186,0.6183,0.6187,0.6211,0.621,0.621,0.622,0.622,0.622,0,0,0.5518,0.5563,0.5596,0.5638,0.5702,0.5743,0.5751,0.5823,0.5851,0.5901,0.5942,0.5979,0.6059,0.61,0.6131,0.6141,0.617,0.6154,0.614,0.6162,0.6161,0.6161,0.6164,0.6164,0.6156,0.6156,0.6156,0,0.5493,0.5557,0.561,0.565,0.5682,0.5732,0.5765,0.5803,0.5879,0.59,0.591,0.6009,0.6054,0.6109,0.6111,0.6135,0.6145,0.6146,0.6157,0.6157,0.6158,0.6161,0.6162,0.6154,0.6154,0.6154,0.6155,0,0.5523,0.5566,0.5585,0.5657,0.5692,0.5728,0.5786,0.5815,0.5845,0.5885,0.5935,0.599,0.6048,0.6064,0.6095,0.6123,0.6127,0.6146,0.6162,0.6154,0.6158,0.6159,0.615,0.6151,0.6152,0.6153,0,0,0.549,0.5588,0.5594,0.5627,0.57,0.5734,0.5772,0.5829,0.5852,0.5902,0.5935,0.6,0.6017,0.6053,0.6088,0.6107,0.611,0.6124,0.6127,0.6119,0.6144,0.6129,0.613,0.613,0.613,0.613,0.6139,0,0.5497,0.5567,0.5615,0.5667,0.5707,0.5753,0.5786,0.5834,0.5872,0.5911,0.5953,0.5997,0.6017,0.6039,0.606,0.6105,0.6116,0.6106,0.6161,0.6162,0.6144,0.6132,0.6117,0.6123,0.6141,0.6141,0.6141,0,0.5515,0.5562,0.5618,0.5685,0.5703,0.5732,0.5787,0.5824,0.5879,0.5905,0.5943,0.5979,0.602,0.6031,0.6089,0.608,0.6105,0.6131,0.6132,0.6139,0.6151,0.6139,0.6126,0.6126,0.6144,0.6144,0.6144,0,0.5484,0.5562,0.5605,0.5632,0.5711,0.573,0.5764,0.5819,0.5849,0.5897,0.5917,0.5969,0.5997,0.6036,0.6084,0.6088,0.6136,0.6152,0.6158,0.6157,0.6167,0.6166,0.6157,0.6183,0.6183,0.6183,0.6183,0,0.5487,0.5519,0.5593,0.5619,0.5656,0.5709,0.5744,0.5782,0.583,0.5864,0.5907,0.5938,0.6,0.6038,0.6076,0.6117,0.6129,0.6151,0.6161,0.6148,0.6145,0.6165,0.6166,0.6183,0.6183,0.6183,0.6183,0,0.546,0.5511,0.556,0.5631,0.5649,0.5673,0.5733,0.576,0.5799,0.5842,0.5855,0.5917,0.5964,0.6015,0.608,0.6106,0.6144,0.6158,0.6125,0.6131,0.6134,0.6133,0.6139,0.6142,0.6165,0.6164,0.6164,0,0.5459,0.5484,0.5557,0.5582,0.5615,0.5656,0.5687,0.5739,0.577,0.5832,0.5852,0.5902,0.5945,0.6018,0.6068,0.6117,0.6133,0.6131,0.6141,0.6126,0.6132,0.613,0.6133,0.6129,0.6128,0.6128,0.6127,0,0.5451,0.5474,0.5517,0.5568,0.5603,0.5646,0.569,0.5709,0.577,0.5801,0.585,0.5883,0.5948,0.5997,0.6052,0.6087,0.6117,0.6124,0.6128,0.6114,0.6094,0.6105,0.6118,0.6124,0.6124,0.6124,0.6124,0.6125,0.5437,0.5461,0.5515,0.5561,0.5599,0.5639,0.5668,0.571,0.5751,0.5808,0.5836,0.5884,0.5936,0.6013,0.6046,0.6084,0.6094,0.61,0.6101,0.6102,0.6098,0.6088,0.6094,0.6095,0.6095,0.6095,0.6095,0,0.5431,0.5467,0.5509,0.5569,0.5604,0.5629,0.5678,0.5706,0.5748,0.5794,0.5835,0.5889,0.5936,0.599,0.604,0.606,0.6075,0.6071,0.607,0.6077,0.6087,0.6078,0.6058,0.6058,0.6058,0.6058,0.6058,0.6058,0.5432,0.5474,0.5503,0.5564,0.56,0.5647,0.5673,0.571,0.5747,0.5805,0.5844,0.5878,0.5927,0.5981,0.6025,0.6039,0.6056,0.6048,0.6066,0.6074,0.6077,0.608,0.6072,0.6051,0.6051,0.6054,0.6054,0.6054]},{"header":{"parameterUnit":"m.s-1","parameterCategory":1,"la1":30.2991,"la2":30.254,"lo1":-89.0895,"lo2":-89.0444,"dy":0.0017,"dx":0.0017,"nx":28,"ny":28,"refTime":"2025-09-17T03:00:00:Z","depth":0,"parameterNumber":3,"parameterNumberName":"V-component_of_WINDS"},"data":[0,0,0,0,0,0,0,0,0,0,0,0,0,0,0,0,0,0,0,0,0,0,0,0,0,0,0,0,0,0,0,0,0,0,0,0,0,0,0,0,0,0,0,0,0,0,0,0,0,0,0,0,0,0,0,0,0,0,2.0191,2.0191,0,2.0174,2.0174,2.0174,2.0142,2.0141,2.014,2.014,2.0122,2.0122,2.0122,0,0,0,0,0,0,0,0,0,0,0,0,0,2.0197,2.0197,2.0191,2.0191,2.0191,2.0174,2.0174,2.0174,2.0142,2.0141,2.014,2.014,2.0122,2.0122,2.0122,0,0,0,0,0,0,0,0,0,0,0,0,0,2.0188,2.0197,2.0191,2.0173,2.0171,2.0174,2.0174,2.0173,2.0142,2.0141,2.014,2.0139,2.0122,2.0122,2.0122,2.0142,0,0,2.0123,2.0123,0,0,0,0,0,0,0,0,2.0189,2.0188,2.0176,2.0174,2.0172,2.0159,2.0169,2.0163,2.0142,2.0153,2.014,2.0139,2.0135,2.0134,2.0133,2.0141,2.014,2.0123,2.0123,2.0123,2.0123,0,0,0,0,0,0,0,2.0189,2.0189,2.0184,2.0176,2.0173,2.0166,2.0163,2.0168,2.0149,2.0152,2.015,2.0148,2.0134,2.0133,2.0132,2.014,2.0123,2.0123,2.0123,2.0123,2.0163,2.0164,0,0,0,0,0,0,2.0193,2.0189,2.0185,2.0184,2.0178,2.0166,2.0164,2.0164,2.0149,2.0146,2.0149,2.0147,2.0133,2.0132,2.0132,2.0153,2.0123,2.0123,2.0123,2.0162,2.0164,2.0165,0,0,0,0,0,0,2.0193,2.0193,2.0186,2.0186,2.0184,2.0167,2.0168,2.0164,2.0163,2.0147,2.0143,2.0151,2.0132,2.0131,2.014,2.0152,2.0123,2.0123,2.0161,2.0163,2.0164,2.0197,0,0,0,0,0,0,2.0193,2.0193,2.02,2.0186,2.0185,2.0194,2.0169,2.0165,2.0164,2.016,2.0148,2.0145,2.0132,2.014,2.014,2.0152,2.0123,2.016,2.0162,2.0164,2.0194,2.0199,2.0203,0,0,0,0,0,2.0194,2.021,2.02,2.02,2.0193,2.0195,2.0193,2.0177,2.0165,2.0172,2.0161,2.0146,2.0151,2.0141,2.0141,2.0153,2.0159,2.0161,2.0163,2.0192,2.0198,2.0203,0,0,0,0,0,0,2.0225,2.0208,2.0197,2.0209,2.0204,2.0189,2.0197,2.0184,2.0182,2.0179,2.0159,2.0157,2.0167,2.0161,2.015,2.0171,2.0153,2.0155,2.0175,2.018,2.0184,2.0185,2.0124,0,0,0,0,0,2.0233,2.0236,2.0221,2.0233,2.0231,2.0215,2.0215,2.0203,2.0196,2.0194,2.0184,2.0178,2.0178,2.0179,2.0178,2.0194,2.019,2.0202,2.0207,2.021,2.0212,2.022,2.0224,2.0172,2.0172,2.0172,0,0,2.0251,2.0241,2.0244,2.0239,2.0233,2.0236,2.0213,2.0217,2.0219,2.0194,2.0201,2.0194,2.0186,2.0198,2.0203,2.0193,2.0226,2.0213,2.0216,2.0216,2.0222,2.0227,2.0232,2.0173,2.0173,2.0173,0,0,2.0283,2.0277,2.0286,2.0281,2.0273,2.0262,2.0265,2.0252,2.0247,2.0254,2.0235,2.0237,2.0238,2.0234,2.0231,2.0263,2.0249,2.0264,2.0286,2.0294,2.0298,2.0301,2.0312,2.0317,2.0266,2.0266,2.0266,0,2.0306,2.0309,2.0293,2.0298,2.0297,2.0275,2.0284,2.028,2.0272,2.0271,2.0261,2.0262,2.0255,2.0265,2.0273,2.0273,2.0274,2.0265,2.0299,2.0302,2.0305,2.0315,2.032,2.0268,2.0268,2.0268,2.0267,0,2.0337,2.034,2.0349,2.0342,2.0341,2.0349,2.0333,2.0335,2.0324,2.0314,2.0322,2.0313,2.031,2.0312,2.0301,2.0321,2.0315,2.0302,2.0283,2.0312,2.0321,2.0325,2.0271,2.027,2.0269,2.0269,0,0,2.0388,2.0372,2.0375,2.0372,2.0362,2.0364,2.0371,2.0368,2.037,2.0366,2.037,2.0372,2.036,2.0358,2.0346,2.0353,2.0378,2.0339,2.0338,2.0346,2.0399,2.0409,2.0414,2.0369,2.037,2.0371,2.04,0,2.0418,2.0428,2.0414,2.0427,2.043,2.041,2.0416,2.041,2.0402,2.0403,2.0394,2.0395,2.0379,2.0378,2.0384,2.0374,2.0389,2.0372,2.0373,2.0373,2.0375,2.0418,2.0428,2.0456,2.0403,2.0404,2.0404,0,2.0453,2.0451,2.0465,2.0454,2.0454,2.046,2.0457,2.0458,2.0452,2.0445,2.0443,2.0429,2.0435,2.0418,2.0426,2.0415,2.0415,2.041,2.0411,2.0409,2.039,2.0417,2.0465,2.0469,2.041,2.041,2.0409,0,2.0488,2.0488,2.0497,2.0494,2.0482,2.0487,2.0482,2.0474,2.0474,2.0471,2.0471,2.0469,2.0468,2.0467,2.0453,2.0442,2.0463,2.0444,2.0457,2.0458,2.0461,2.0461,2.0509,2.0463,2.0463,2.0463,2.0463,0,2.0522,2.0531,2.0512,2.0517,2.0527,2.0511,2.0521,2.0514,2.0508,2.0511,2.0494,2.0498,2.048,2.0482,2.0471,2.0479,2.0479,2.0474,2.0471,2.0475,2.0475,2.0473,2.0471,2.0464,2.0464,2.0464,2.0464,0,2.0562,2.055,2.0557,2.0545,2.0543,2.055,2.054,2.0544,2.0535,2.054,2.054,2.0526,2.0527,2.0514,2.0513,2.0506,2.0518,2.0512,2.052,2.0518,2.0531,2.053,2.0579,2.0584,2.0536,2.0537,2.0537,0,2.0584,2.0591,2.058,2.0581,2.0577,2.0579,2.0578,2.0563,2.0563,2.0557,2.0562,2.0562,2.0561,2.0564,2.0553,2.0552,2.0546,2.0563,2.0545,2.0549,2.0545,2.0544,2.0545,2.0566,2.0567,2.0567,2.0568,0,2.0625,2.0618,2.0618,2.0616,2.0616,2.0614,2.0611,2.0613,2.0596,2.0597,2.0598,2.0598,2.0596,2.0596,2.0594,2.0589,2.0575,2.0573,2.0576,2.058,2.0584,2.0581,2.0529,2.0572,2.0572,2.0571,2.0571,2.0571,2.0656,2.0661,2.0654,2.0654,2.065,2.0648,2.0651,2.0643,2.0643,2.0641,2.0632,2.0635,2.0629,2.0624,2.062,2.0622,2.0613,2.0618,2.0619,2.062,2.0622,2.0585,2.0621,2.0621,2.0621,2.0621,2.0621,0,2.0695,2.0689,2.069,2.0686,2.0687,2.0675,2.067,2.0672,2.0674,2.067,2.0669,2.0671,2.0671,2.0661,2.066,2.0663,2.0657,2.0663,2.0662,2.0661,2.063,2.0627,2.0668,2.0668,2.0668,2.0668,2.0668,2.0668,2.0715,2.0722,2.0715,2.0721,2.0715,2.0718,2.0716,2.0714,2.071,2.0712,2.0712,2.0706,2.07,2.0698,2.0698,2.0695,2.0695,2.0703,2.0698,2.0668,2.0664,2.0659,2.0656,2.0703,2.0703,2.0729,2.073,2.073]}]]